Hourly Data Report for September 27, 2017

All times are specified in Local Standard Time (LST). Add 1 hour to adjust for Daylight Saving Time where and when it is observed.

KITCHENER/WATERLOO
ONTARIO

43°27'39.000" N
80°22'43.000" W
321.60 m
6144239
71368
YKF

Download Data

Hourly Data (September 2017)
Hourly Data Report for September 27, 2017
Temp Definition
°C
Dew Point Temp Definition
°C
Rel Hum Definition
%
Wind Dir Definition
10's deg

Wind Spd Definition
km/h
Visibility Definition
km
Stn Press Definition
kPa
Hmdx Definition


Wind Chill Definition


Weather Definition


TIME
00:00 Legend Double Dagger 19.6 15.8 78 16 4 16.1 97.59     LegendNANA
01:00 Legend Double Dagger 17.4 15.2 87 15 4 16.1 97.58     LegendNANA
02:00 Legend Double Dagger 16.5 15.1 91   0 16.1 97.53     LegendNANA
03:00 Legend Double Dagger 18.0 16.7 92   0 16.1 97.51     LegendNANA
04:00 Legend Double Dagger 19.4 16.8 85 LegendMM 4 16.1 97.49     LegendNANA
05:00 Legend Double Dagger 19.4 17.1 86 24 8 16.1 97.48     LegendNANA
06:00 Legend Double Dagger 18.1 17.0 93 12 4 14.5 97.48     LegendNANA
07:00 Legend Double Dagger 20.2 17.9 86 29 4 16.1 97.49 26   LegendNANA
08:00 Legend Double Dagger 22.7 18.0 74 25 9 16.1 97.45 29   LegendNANA
09:00 Legend Double Dagger 24.8 17.9 65 27 22 16.1 97.44 31   LegendNANA
10:00 Legend Double Dagger 24.6 18.8 70 30 15 16.1 97.47 31   LegendNANA
11:00 Legend Double Dagger 24.9 18.8 69 27 18 16.1 97.48 32   LegendNANA
12:00 Legend Double Dagger 23.8 18.6 72 30 24 16.1 97.47 30   LegendNANA
13:00 Legend Double Dagger 22.0 18.6 81 31 15 16.1 97.48 28   LegendNANA
14:00 Legend Double Dagger 20.1 17.1 83 30 22 16.1 97.50 25   LegendNANA
15:00 Legend Double Dagger 21.7 14.9 65 29 28 16.1 97.47 26   LegendNANA
16:00 Legend Double Dagger 21.2 13.6 61 32 30 16.1 97.53     LegendNANA
17:00 Legend Double Dagger 18.8 12.0 64 32 24 16.1 97.58     LegendNANA
18:00 Legend Double Dagger 17.0 11.1 68 30 15 16.1 97.63     LegendNANA
19:00 Legend Double Dagger 15.9 11.5 75 31 18 16.1 97.67     LegendNANA
20:00 Legend Double Dagger 14.4 10.7 78 31 13 16.1 97.73     LegendNANA
21:00 Legend Double Dagger 13.8 10.7 82 31 11 16.1 97.74     LegendNANA
22:00 Legend Double Dagger 13.2 10.8 85 30 11 16.1 97.76     LegendNANA
23:00 Legend Double Dagger 13.0 9.9 81 32 17 16.1 97.76     LegendNANA

Notes on Data Quality.

Legend

  • E = Estimated
  • M = Missing
  • NA = Not Available
  • ‡ = Partner data that is not subject to review by the National Climate Archives
Date modified: